Regional Weather Roundup
Issued by NWS Cleveland, OH

Home | Current Version | Previous Version | Graphics & Text | Print | Product List | Glossary On
Versions: 1 2 3 4 5 6 7 8 9 10 11 12 13 14 15 16 17 18 19 20 21 22 23 24 25 26 27 28 29 30 31 32 33 34 35 36 37 38 39 40 41 42 43 44 45 46 47 48 49 50
000
ASUS41 KCLE 182200
RWRCLE
OHIO REGIONAL WEATHER ROUNDUP
NATIONAL WEATHER SERVICE WILMINGTON, OH
600 PM EDT SAT APR 18 2015

NOTE: "FAIR" INDICATES FEW OR NO CLOUDS BELOW 12,000 FEET WITH NO
SIGNIFICANT WEATHER AND/OR OBSTRUCTIONS TO VISIBILITY.

OHZ001>008-015>018-024>027-034-035-043-044-182300-
   NORTHWEST OHIO

CITY           SKY/WX    TMP DP  RH WIND       PRES   REMARKS
DEFIANCE       CLOUDY    68  41  37 E16G23    30.04R
FINDLAY        CLOUDY    66  35  31 NE20      30.04S
TOLEDO EXPRESS PTSUNNY   64  26  23 E17       30.07S
TOLEDO EXEC    PTSUNNY   62  32  32 E14       30.09S
LIMA           PTSUNNY   73  50  44 NE17G25   30.01S
$$

OHZ009>014-019>023-028>033-038-089-182300-
   NORTHEAST OHIO

CITY           SKY/WX    TMP DP  RH WIND       PRES   REMARKS
CLE-HOPKINS    CLOUDY    63  33  32 N10       30.10F
CLE-LAKEFRONT  CLOUDY    53  42  66 NW3       30.08F
CUY CO. ARPT   PTSUNNY   66  39  37 N12       30.09F
LORAIN-ELYRIA  CLOUDY    63  36  36 NE10      30.08F
ASHTABULA      PTSUNNY   66  31  27 N10       30.09S
AKRON-CANTON   CLOUDY    71  46  40 N13       30.05S
WOOSTER        NOT AVBL
MANSFIELD      CLOUDY    68  46  45 N15       30.05S
YOUNGSTOWN     CLOUDY    70  42  36 N13       30.06S
$$

OHZ042-051>053-060>062-070>072-077>081-182300-
  SOUTHWEST OHIO

CITY           SKY/WX    TMP DP  RH WIND       PRES   REMARKS
CINC-COVINGTON PTSUNNY   77  46  33 E14       29.97F
CINC-LUNKEN    MOSUNNY   77  48  35 NE13      29.96F
HAMILTON       PTSUNNY   76  51  41 E8        29.98S
DAYTON         NOT AVBL
WRIGHT-PAT AFB CLOUDY    75  46  36 E6        29.99S
DAYTON GENERAL CLOUDY    74  48  39 E5        29.98F
WILMINGTON     PTSUNNY   73  46  38 NE9       29.99F
$$

OHZ036-037-039>041-045>050-054>059-063>069-073>076-082>088-182300-
  CENTRAL AND SOUTHEAST OHIO

CITY           SKY/WX    TMP DP  RH WIND       PRES   REMARKS
COLUMBUS       CLOUDY    77  43  29 NE8       29.98F
OSU AIRPORT    PTSUNNY   75  44  33 NE9       29.99F
BOLTON FIELD   SUNNY     75  46  35 E5        29.99F
RICKENBACK AFB NOT AVBL
NEWARK         PTSUNNY   77  42  28 E15       29.99S
MARION         PTSUNNY   71  48  43 NE18      30.02F
LANCASTER      PTSUNNY   76  47  35 NE7       29.99F
ZANESVILLE     CLOUDY    74  41  30 NE10      30.01S
NEW PHILLY     CLOUDY    77  44  30 N10       30.02S
$$



USA.gov is the U.S. government's official web portal to all federal, state and local government web resources and services.